Вернуться в каталог

ELECTRON KICK STAGE R/B

АктивенPO
NORAD 64692·ROCKET BODY·🇺🇸 United States

Запущен Jun 28, 2025 с Rocket Lab Launch Complex 1

Loading…

Ближайшие Пролёты (ближайшие 24 часа)

TLE

СвежийSource: Space-Track

Эпоха: Sep 14, 2026, 05:47 UTC

1 64692U 25140B   26257.24121299  .00001064  00000-0  16696-3 0  9993
2 64692  96.0116 355.0241 0012137 255.4266 104.5601 14.73836193 65201

Отслеживайте ELECTRON KICK STAGE R/B в реальном времени с AllMySat

Download on the App Store